This is the latest recevied weather packets stored in our database for station/object DL4NBA-1. If no packets are shown the sender has not sent any weather packets the latest 10 day(s).
| Time | Temp. | Humidity | Pressure | Rain* | Wind** | Luminosity | Snow |
|---|---|---|---|---|---|---|---|
| 1777854938 | 11.11° C | - | - | 0 mm | 0 m/s | - | - |
| 1777854639 | 11.67° C | - | - | 0 mm | 0 m/s | - | - |
| 1777854338 | 11.67° C | - | - | 0 mm | 0 m/s | - | - |
| 1777854039 | 11.67° C | - | - | 0 mm | 0 m/s | - | - |
| 1777853740 | 11.67° C | - | - | 0 mm | 0 m/s | - | - |
| 1777853442 | 12.22° C | - | - | 0 mm | 0 m/s | - | - |
| 1777852841 | 12.78° C | - | - | 0 mm | 0 m/s | - | - |
| 1777852542 | 13.33° C | - | - | 0 mm | 0 m/s | - | - |
| 1777852243 | 13.89° C | - | - | 0 mm | 0.45 m/s, 221° | - | - |
| 1777851046 | 13.89° C | - | - | 0 mm | 0 m/s | - | - |
| 1777850449 | 14.44° C | - | - | 0 mm | 0 m/s | - | - |
| 1777850150 | 15° C | - | - | 0 mm | 1.34 m/s, 285° | - | - |
| 1777849849 | 15° C | - | - | 0 mm | 0.89 m/s, 204° | - | - |
| 1777849252 | 15° C | - | - | 0 mm | 0 m/s | - | - |
| 1777848953 | 15° C | - | - | 0 mm | 0.89 m/s, 255° | - | - |
| 1777848654 | 15° C | - | - | 0 mm | 0.45 m/s, 240° | - | - |
| 1777848353 | 15.56° C | - | - | 0 mm | 1.79 m/s, 238° | - | - |
| 1777847756 | 15.56° C | - | - | 0 mm | 2.68 m/s, 236° | - | - |
| 1777847457 | 16.11° C | - | - | 0 mm | 2.68 m/s, 271° | - | - |
| 1777847159 | 16.11° C | - | - | 0 mm | 4.92 m/s, 283° | - | - |
| 1777846856 | 16.67° C | - | - | 0 mm | 3.58 m/s, 274° | - | - |
| 1777846558 | 16.67° C | - | - | 0 mm | 4.47 m/s, 252° | - | - |
| 1777846259 | 16.67° C | - | - | 0 mm | 4.47 m/s, 276° | - | - |
| 1777845961 | 16.67° C | - | - | 0 mm | 4.92 m/s, 238° | - | - |
| 1777845662 | 16.67° C | - | - | 0 mm | 4.92 m/s, 280° | - | - |
* Rain latest hour (hover to see other rain measurements)
** Current wind speed in m/s (hover to see current wind gust speed)